Location: Budapest
(47.4979°N, 19.0402°E)
Time: 18:03:46
(UTC+01:00)

Envisat - Pass Details

Date: 14 October 2017
Orbit: 764 x 766 km, 98.2° (Epoch: 14 December)

Event Time Altitude Azimuth Distance (km) Brightness Sun altitude
Exits shadow 21:19:25 31° 261° (W) 1,316 4.5 -34.0°
Maximum altitude 21:19:36 31° 265° (W) 1,313 4.5 -34.0°
Drops below altitude 10° 21:24:08 10° 328° (NNW) 2,315 6.1 -34.7°
Sets 21:26:42 0° 338° (NNW) 3,247 6.9 -35.1°
